When you browse on this site, cookies collect data to enhance your experience and personalize the content and advertising you see.
Visit our Privacy Policy to learn more. By continuing to use the site, you agree to this use of cookies and data.

Hourly Weather Kapustino

Today, 13 July, Monday

Time Temperature Precipitation Wind Pressure Humidity
00:00 +12°C° 0 mm 1 mps 757 mmHg 95%
01:00 +11°C° 0 mm 1 mps 757 mmHg 96%
02:00 +11°C° 0 mm 1 mps 757 mmHg 96%
03:00 +11°C° 0 mm 1 mps 757 mmHg 96%
04:00 +10°C° 0 mm 2 mps 757 mmHg 96%
05:00 +10°C° 0 mm 2 mps 757 mmHg 96%
06:00 +13°C° 0 mm 2 mps 756 mmHg 90%
07:00 +14°C° 0 mm 2 mps 756 mmHg 84%
08:00 +16°C° 0 mm 2 mps 756 mmHg 78%
09:00 +17°C° 0 mm 2 mps 756 mmHg 68%
10:00 +19°C° 0 mm 2 mps 756 mmHg 58%
11:00 +20°C° 0 mm 3 mps 755 mmHg 48%
12:00 +20°C° 0 mm 3 mps 755 mmHg 45%
13:00 +21°C° 0 mm 3 mps 755 mmHg 43%
14:00 +22°C° 0 mm 3 mps 755 mmHg 41%
15:00 +21°C° 0 mm 3 mps 755 mmHg 41%
16:00 +21°C° 0 mm 2 mps 754 mmHg 42%
17:00 +21°C° 0 mm 2 mps 754 mmHg 43%
18:00 +20°C° 0 mm 2 mps 754 mmHg 53%
19:00 +18°C° 0 mm 2 mps 754 mmHg 62%
20:00 +16°C° 0 mm 2 mps 754 mmHg 72%
21:00 +15°C° 0 mm 2 mps 754 mmHg 76%
22:00 +14°C° 0 mm 1 mps 754 mmHg 80%
23:00 +12°C° 0 mm 1 mps 754 mmHg 83%

Tomorrow, 14 July, Tuesday

Time Temperature Precipitation Wind Pressure Humidity
00:00 +12°C° 0 mm 1 mps 755 mmHg 87%
01:00 +11°C° 0 mm 1 mps 755 mmHg 90%
02:00 +11°C° 0 mm 1 mps 755 mmHg 93%
03:00 +11°C° 0 mm 1 mps 755 mmHg 92%
04:00 +11°C° 0 mm 1 mps 755 mmHg 91%
05:00 +11°C° 0 mm 1 mps 755 mmHg 91%
06:00 +14°C° 0 mm 1 mps 755 mmHg 81%
07:00 +16°C° 0 mm 1 mps 755 mmHg 72%
08:00 +18°C° 0 mm 2 mps 755 mmHg 63%
09:00 +19°C° 0 mm 2 mps 755 mmHg 57%
10:00 +20°C° 0 mm 2 mps 755 mmHg 50%
11:00 +21°C° 0 mm 2 mps 755 mmHg 44%
12:00 +21°C° 0 mm 2 mps 755 mmHg 43%
13:00 +22°C° 0 mm 3 mps 755 mmHg 42%
14:00 +22°C° 0 mm 3 mps 754 mmHg 41%
15:00 +22°C° 0 mm 3 mps 754 mmHg 43%
16:00 +22°C° 0 mm 3 mps 754 mmHg 44%
17:00 +21°C° 0 mm 3 mps 754 mmHg 46%
18:00 +20°C° 0 mm 2 mps 754 mmHg 54%
19:00 +18°C° 0 mm 2 mps 754 mmHg 62%
20:00 +16°C° 0 mm 2 mps 754 mmHg 70%
21:00 +15°C° 0 mm 2 mps 754 mmHg 71%
22:00 +14°C° 0 mm 2 mps 754 mmHg 73%
23:00 +13°C° 0 mm 2 mps 754 mmHg 74%

Day after tomorrow, 15 July, Wednesday

Time Temperature Precipitation Wind Pressure Humidity
00:00 +12°C° 0 mm 2 mps 754 mmHg 74%
01:00 +10°C° 0 mm 2 mps 754 mmHg 73%
02:00 +10°C° 0 mm 1 mps 754 mmHg 73%
03:00 +11°C° 0 mm 1 mps 754 mmHg 73%
04:00 +11°C° 0 mm 1 mps 754 mmHg 73%
05:00 +11°C° 0 mm 1 mps 754 mmHg 73%
06:00 +13°C° 0 mm 2 mps 754 mmHg 69%
07:00 +15°C° 0 mm 2 mps 754 mmHg 64%
08:00 +17°C° 0 mm 2 mps 754 mmHg 60%
09:00 +19°C° 0 mm 3 mps 754 mmHg 55%
10:00 +20°C° 0 mm 3 mps 754 mmHg 51%
11:00 +22°C° 0 mm 3 mps 754 mmHg 46%
12:00 +22°C° 0 mm 3 mps 754 mmHg 45%
13:00 +23°C° 0 mm 4 mps 754 mmHg 43%
14:00 +23°C° 0 mm 4 mps 754 mmHg 42%
15:00 +24°C° 0 mm 3 mps 753 mmHg 44%
16:00 +24°C° 0 mm 3 mps 753 mmHg 46%
17:00 +24°C° 0 mm 3 mps 753 mmHg 48%
18:00 +21°C° 0 mm 2 mps 753 mmHg 55%
19:00 +19°C° 0 mm 2 mps 754 mmHg 63%
20:00 +18°C° 0 mm 2 mps 754 mmHg 70%
21:00 +17°C° 0 mm 2 mps 754 mmHg 71%
22:00 +15°C° 0 mm 2 mps 754 mmHg 73%
23:00 +14°C° 0 mm 2 mps 754 mmHg 74%

16 July, Thursday

Time Temperature Precipitation Wind Pressure Humidity
00:00 +14°C° 0 mm 2 mps 754 mmHg 77%
01:00 +13°C° 0 mm 1 mps 754 mmHg 80%
02:00 +12°C° 0 mm 1 mps 754 mmHg 82%
03:00 +12°C° 0 mm 1 mps 754 mmHg 81%
04:00 +12°C° 0 mm 1 mps 754 mmHg 80%
05:00 +13°C° 0 mm 1 mps 754 mmHg 79%
06:00 +15°C° 0 mm 1 mps 754 mmHg 73%
07:00 +16°C° 0 mm 1 mps 754 mmHg 67%
08:00 +18°C° 0 mm 2 mps 754 mmHg 61%
09:00 +20°C° 0 mm 2 mps 754 mmHg 56%
10:00 +21°C° 0 mm 2 mps 754 mmHg 52%
11:00 +24°C° 0 mm 2 mps 754 mmHg 47%
12:00 +24°C° 0 mm 2 mps 754 mmHg 46%
13:00 +25°C° 0 mm 3 mps 754 mmHg 45%
14:00 +25°C° 0 mm 3 mps 754 mmHg 43%
15:00 +25°C° 0 mm 3 mps 754 mmHg 46%
16:00 +25°C° 0 mm 3 mps 754 mmHg 48%
17:00 +24°C° 0 mm 3 mps 754 mmHg 50%
18:00 +23°C° 0 mm 2 mps 754 mmHg 58%
19:00 +20°C° 0 mm 2 mps 754 mmHg 65%
20:00 +18°C° 0 mm 2 mps 754 mmHg 72%
21:00 +17°C° 0 mm 2 mps 754 mmHg 76%
22:00 +15°C° 0 mm 2 mps 755 mmHg 81%
23:00 +14°C° 0 mm 2 mps 755 mmHg 85%

17 July, Friday

Time Temperature Precipitation Wind Pressure Humidity
00:00 +13°C° 0 mm 1 mps 755 mmHg 88%
01:00 +13°C° 0 mm 1 mps 755 mmHg 91%
02:00 +12°C° 0 mm 1 mps 755 mmHg 95%
03:00 +12°C° 0 mm 1 mps 755 mmHg 94%
04:00 +12°C° 0 mm 1 mps 755 mmHg 93%
05:00 +13°C° 0 mm 1 mps 755 mmHg 92%
06:00 +15°C° 0 mm 1 mps 755 mmHg 81%
07:00 +18°C° 0 mm 1 mps 755 mmHg 71%
08:00 +19°C° 0 mm 2 mps 755 mmHg 60%
09:00 +20°C° 0 mm 2 mps 755 mmHg 53%
10:00 +21°C° 0 mm 2 mps 755 mmHg 46%
11:00 +24°C° 0 mm 2 mps 756 mmHg 39%
12:00 +24°C° 0 mm 2 mps 755 mmHg 37%
13:00 +25°C° 0 mm 2 mps 755 mmHg 36%
14:00 +26°C° 0 mm 2 mps 755 mmHg 34%
15:00 +25°C° 0 mm 2 mps 755 mmHg 36%
16:00 +25°C° 0 mm 2 mps 755 mmHg 38%
17:00 +25°C° 0 mm 2 mps 755 mmHg 40%
18:00 +23°C° 0 mm 2 mps 756 mmHg 49%
19:00 +20°C° 0 mm 2 mps 756 mmHg 59%
20:00 +19°C° 0 mm 1 mps 756 mmHg 69%
21:00 +18°C° 0 mm 1 mps 756 mmHg 70%
22:00 +15°C° 0 mm 1 mps 757 mmHg 71%
23:00 +14°C° 0 mm 2 mps 757 mmHg 73%

18 July, Saturday

Time Temperature Precipitation Wind Pressure Humidity
00:00 +13°C° 0 mm 1 mps 757 mmHg 73%
01:00 +12°C° 0 mm 1 mps 758 mmHg 74%
02:00 +11°C° 0 mm 1 mps 758 mmHg 75%
03:00 +11°C° 0 mm 1 mps 758 mmHg 76%
04:00 +11°C° 0 mm 1 mps 758 mmHg 77%
05:00 +11°C° 0 mm 1 mps 758 mmHg 78%
06:00 +13°C° 0 mm 1 mps 759 mmHg 72%
07:00 +16°C° 0 mm 1 mps 759 mmHg 66%
08:00 +19°C° 0 mm 1 mps 759 mmHg 60%
09:00 +19°C° 0 mm 2 mps 759 mmHg 54%
10:00 +21°C° 0 mm 2 mps 759 mmHg 47%
11:00 +24°C° 0 mm 2 mps 759 mmHg 40%
12:00 +25°C° 0 mm 2 mps 759 mmHg 37%
13:00 +25°C° 0 mm 2 mps 759 mmHg 35%
14:00 +26°C° 0 mm 2 mps 759 mmHg 32%
15:00 +26°C° 0 mm 2 mps 758 mmHg 33%
16:00 +26°C° 0 mm 2 mps 758 mmHg 34%
17:00 +25°C° 0 mm 2 mps 758 mmHg 36%
18:00 +23°C° 0 mm 1 mps 758 mmHg 45%
19:00 +21°C° 0 mm 1 mps 759 mmHg 55%
20:00 +17°C° 0 mm 0 mps 759 mmHg 65%
21:00 +16°C° 0 mm 0 mps 759 mmHg 68%
22:00 +15°C° 0 mm 1 mps 759 mmHg 70%
23:00 +14°C° 0 mm 1 mps 760 mmHg 73%
Show more